Weather Service Report


349 
ASUS46 KLOX 281813
RWRCA 

SOUTHERN CALIFORNIA WEATHER ROUNDUP
NATIONAL WEATHER SERVICE OXNARD CALIFORNIA
1100 AM PDT THU JUL 28 2016

NOTE: "FAIR" INDICATES FEW OR NO CLOUDS BELOW 12,000 FEET WITH NO 
SIGNIFICANT WEATHER AND/OR OBSTRUCTIONS TO VISIBILITY.

  -  STATIONS PRECEEDED BY AN ASTERISK (*) ARE NOT NWS OR FAA 
     STATIONS AND ARE NOT SUBJECT TO NWS AND FAA QUALITY CONTROL.

CAZ041-042-087-281900-
LA AND ORANGE COUNTY COASTAL AREAS

  
CITY           SKY/WX    TMP DP  RH WIND       PRES   REMARKS
L.A. DOWNTOWN  NOT AVBL                                               
L.A. AIRPORT   SUNNY     77  65  66 W12       29.92R                  
LONG BEACH     SUNNY     78  65  63 SE8       29.91R                  

CITY           SKY/WX    TMP DP  RH WIND       PRES   REMARKS
AVALON           N/A     73 N/A N/A MISG        N/A                   
FULLERTON      SUNNY     85  61  44 SW5       29.90S                  
*GETTY CENTER    N/A     79  64  61 S7          N/A                   
HAWTHORNE      SUNNY     80  66  62 W8        29.92R                  
*REDONDO BEACH   N/A     75  65  72 SW3       29.91S                  
SANTA ANA      MOSUNNY   78  65  63 SW9       29.91R                  
STA MONICA APT SUNNY     76  66  71 SW9       29.92R                  
TORRANCE       SUNNY     79  68  69 NW7       29.92S                  
*UCLA            N/A     77  63  61 S7        29.90R                  

$$

CAZ547-548-048-281900-
LA COUNTY VALLEYS AND INLAND EMPIRE

  
CITY           SKY/WX    TMP DP  RH WIND       PRES   REMARKS
BURBANK        SUNNY     86  54  33 SE6       29.91S                  
VAN NUYS       SUNNY     88  48  25 SE8       29.91S                  

CITY           SKY/WX    TMP DP  RH WIND       PRES   REMARKS
CORONA AIRPORT CLEAR     88  60  38 W8        29.91S                  
*CHATSWORTH      N/A     88  52  28 S1        29.89S                  
CHINO          SUNNY     91  40  16 VRB3      29.93R                  
*CLAREMONT       N/A     86  52  30 S5          N/A                   
*NORTHRIDGE      N/A     88  45  22 E3          N/A                   
ONTARIO        MOSUNNY   89  42  19 VRB5      29.93R                  
*PASADENA        N/A     88  54  31 E7          N/A                   
POMONA         SUNNY     84  55  37 W7        29.96                   
RIVERSIDE      SUNNY     89  44  20 VRB5      29.92S                  
SAN BERNARDINO MOSUNNY   93  41  16 W3        29.93S                  
*SAN GABRIEL     N/A     84  58  41 SE3       29.96R                  
*WHITEMAN AP   SUNNY     84  54  34 SE6       29.96S                  
*WOODLAND HILL   N/A     88  57  35 N5          N/A                   

$$

CAZ054-055-281900-
LA AND SAN BERNARDINO COUNTY MOUNTAINS

  
CITY           SKY/WX    TMP DP  RH WIND       PRES   REMARKS
*BIG BEAR AIRP PTCLDY    84  43  23 E10       30.32R                  
SANDBERG       SUNNY     93  34  12 N15       30.15S                  
*WARM SPRINGS    N/A     88  -2   3 CALM        N/A                   

$$

CAZ028-029-059-060-099-281900-
ANTELOPE VALLEY AND SURROUNDING AREAS

  
CITY           SKY/WX    TMP DP  RH WIND       PRES   REMARKS
LANCASTER      SUNNY    101  41  12 MISG      29.94S HX  96           
PALMDALE       SUNNY     98  44  15 SW5       29.96S HX  94           

CITY           SKY/WX    TMP DP  RH WIND       PRES   REMARKS
29 PALMS       MOSUNNY  105  36   9 SE7       29.97S HX  99           
BARSTOW/DAGGET SUNNY    102  43  13 NW14      29.90S HX  97           
BISHOP         SUNNY     98  36  11 CALM      30.07F HX  93           
CHINA LAKE     MOSUNNY  104  43  12 VRB3      29.91S HX  99           
MOJAVE         SUNNY     99  43  14 VRB5      29.98S HX  94           
NEEDLES        MOSUNNY  111  54  15 SW15G23   29.81F HX 109           
VICTORVILLE    MOSUNNY   99  39  12 SW5       29.98S HX  94           

$$

CAZ039-040-281900-
VENTURA AND SANTA BARBARA COUNTY COAST

  
CITY           SKY/WX    TMP DP  RH WIND       PRES   REMARKS
CAMARILLO      SUNNY     78  66  66 SW10      29.90S                  
NWS OXNARD       N/A     80  64  57 CALM      29.90S                  
OXNARD AIRPORT SUNNY     74  64  71 W8        29.91R                  
*POINT MUGU    MOSUNNY   75  65  70 SW9       29.92R                  
SBA APT/GOLETA SUNNY     70  63  78 S7        29.92R                  
*SANTA BARBARA   N/A     78  63  60 CALM      29.99R                  
*VENTURA         N/A     78  65  66 SW6       29.89S                  

$$

CAZ044-045-281900-
VENTURA COUNTY VALLEYS

  
CITY           SKY/WX    TMP DP  RH WIND       PRES   REMARKS
*SIMI VALLEY     N/A     91  52  26 CALM      29.83S                  
*WESTLAKE VILL   N/A     88  61  40 CALM      29.86S                  
*OJAI            N/A     91  60  35 CALM      29.82S HX  90           
*FILLMORE        N/A     90  58  34 CALM      29.78F                  

$$

CAZ053-281900-
VENTURA COUNTY MOUNTAINS

  
CITY           SKY/WX    TMP DP  RH WIND       PRES   REMARKS
*FRAZIER MTN     N/A     78  35  21 E3        29.90S                  
*ROSE VALLEY     N/A     97  48  19 MISG        N/A  HX  93           

$$

CAZ034-035-036-281900-
CENTRAL COAST AND SANTA YNEZ VALLEY

  
CITY           SKY/WX    TMP DP  RH WIND       PRES   REMARKS
SAN LUIS OBISP PTSUNNY   76  54  46 CALM      29.92F                  
SANTA MARIA    SUNNY     70  57  63 NW8       29.94S                  

CITY           SKY/WX    TMP DP  RH WIND       PRES   REMARKS
*CAL POLY SLO    N/A     72  57  60 S3          N/A                   
*LOMPOC        SUNNY     68  56  65 W10       29.93S                  
*PISMO BEACH     N/A     58  56  92 SW3       29.95R                  
*SANTA YNEZ    FAIR      82  45  26 NW6       29.92S                  

$$

CAZ037-038-051-281900-
SAN LUIS OBISPO COUNTY INTERIOR AND CUYAMA VALLEY

  
CITY           SKY/WX    TMP DP  RH WIND       PRES   REMARKS
*CUYAMA          N/A     95  43  16 SE3       29.80S HX  90           
PASO ROBLES    SUNNY     86  39  19 CALM      29.92S                  

$$

CAZ032-033-061-281900-
SOUTHERN DESERTS

  
CITY           SKY/WX    TMP DP  RH WIND       PRES   REMARKS
BLYTHE         NOT AVBL                                               
IMPERIAL       SUNNY    106  66  27 SE8       29.76S HX 111           
PALM SPRINGS   SUNNY    104  55  19 E14       29.84R HX 102           
THERMAL        SUNNY    102  64  28 SE7       29.76F HX 105           

$$

ELSEWHERE ACROSS THE WESTERN UNITED STATES AND MEXICO

  
CITY           SKY/WX    TMP DP  RH WIND       PRES   REMARKS
DEATH VALLEY,    N/A    116  46   9 SE3         N/A  HX 111           
DENVER, CO     MOSUNNY   78  58  49 N10       30.20S                  
GRAND CANYON,  SUNNY     90  40  17 VRB3      30.31S                  
HONOLULU, HI   MOSUNNY   81  66  61 NE13G21   30.02S                  
KAHULUI, MAUI  MOSUNNY   81  68  65 NE23G30   30.02R                  
LAKE TAHOE, CA SUNNY     79  47  32 N7        30.30S                  
LAS VEGAS, NV  PTSUNNY  104  43  12 SW3       29.86S HX  99           
MAMMOTH LAKES,   N/A     85  32  14 E7        30.35F                  
MEXICO CITY, M MOSUNNY   70  52  52 E8        30.33F                  
PHOENIX, AZ    MOSUNNY  101  59  24 S5        29.87F HX 101           
PORTLAND, OR   SUNNY     74  59  59 W6        30.07F                  
RENO, NV       MOSUNNY   91  37  15 VRB3      30.15F                  
SALT LAKE CITY MOSUNNY   95  34  11 NW6       30.10S HX  90           
SAN DIEGO, CA  MOSUNNY   77  66  68 W7        29.93R                  
SAN FRANCISCO, MOSUNNY   65  54  67 N6        29.92F                  
SAN JOSE, CA   MOSUNNY   73  58  59 NW5       29.91F                  
SEATTLE, WA    SUNNY     77  59  53 NW9       30.14S                  
TIJUANA, MEX   SUNNY     82  59  44 NW8       29.94S                  

$$
  
STATION/POSITION TIME  TEMP    WIND        PRES    VSBY  WAVE
                       AIR SEA DIR/SP/G                  HT/PER
                 (UTC) (F)     (DEG/KT/KT) (MB)    (MI)  (FT/S)
POINT ARGUELLO B NOT AVBL
WEST SANTA BARBA 1750   59 66  310/ 14/ 17 1013.6R         5/10
POINT CONCEPTION NOT AVBL
EAST SANTA BARBA 1800          250/ 10/ 12 1013.5R
SANTA MONICA BAY 1700   69 70  170/  6/  8 1012.5S

Return to Home page


Western Regional Climate Center, wrcc@dri.edu